Location: eljas
(40.1958°N, 6.8661°W)
Time: 05:53:42
(UTC+02:00)

Daily predictions for brighter satellites

Satellite Brightness Start Highest point End
(mag) Time Altitude Azimuth Time Altitude Azimuth Time Altitude Azimuth
USA 215 4.4 05:29:05 10° NE 05:33:22 31° N 05:33:22 31° N
USA 229 DEB 4.4 05:45:39 42° SE 05:46:49 46° ESE 05:53:20 10° NE
USA 229 4.4 05:45:41 41° SE 05:46:55 46° ESE 05:53:23 10° NE
Okean O Rocket 3.5 05:49:21 10° NE 05:53:05 26° E 05:53:27 26° ESE
Cosmos 1943 Rocket 2.6 06:01:17 55° NE 06:01:17 55° NE 06:05:36 10° NNE
USA 267 3.6 05:58:58 10° SE 06:03:55 51° S 06:03:55 51° S
Cosmos 2184 Rocket 3.9 06:05:09 10° N 06:11:27 88° E 06:17:39 10° S
ADEOS II 2.5 06:12:34 10° N 06:16:33 52° N 06:16:33 52° N
MOS 1-B 4.2 06:17:47 10° NNE 06:23:35 78° WNW 06:23:57 74° WSW
OAO 2 Rocket 3.8 06:31:20 46° S 06:31:20 46° S 06:35:56 10° ESE
CZ-3 R/B 4.1 06:22:15 33° WSW 06:33:57 48° SSW 06:43:35 10° SE
Lacrosse 5 3.6 06:36:46 20° NNW 06:36:46 20° NNW 06:40:01 10° NNE
Cosmos 2369 Rocket 3.2 06:38:01 30° NNW 06:38:01 30° NNW 06:41:46 10° N
Cosmos 2150 Rocket 3.8 06:36:38 59° SSW 06:37:40 84° WNW 06:43:00 10° NNE
CZ-4C R/B 2.9 06:35:52 17° NW 06:41:47 86° WSW 06:49:50 10° SSE
Cosmos 1898 Rocket 3.9 06:44:13 43° NW 06:44:13 43° NW 06:48:30 10° N
Meteor PRIRODA 4.2 06:42:21 10° NNE 06:46:04 57° E 06:48:50 17° S
Cosmos 1937 Rocket 3.5 06:46:34 55° WSW 06:47:17 60° WNW 06:52:34 10° NNE
Kosmos-1675 4.4 06:47:13 47° WSW 06:48:31 66° NW 07:04:36 10° NE
Nadezhda 1 Rocket 4.0 06:46:34 22° SSW 06:50:48 59° W 06:57:07 10° N
Cosmos 1470 2.6 06:51:30 75° SW 06:51:30 75° SW 06:55:08 10° S
Cosmos 2074 Rocket 4.3 06:45:45 10° NNW 06:51:37 42° W 06:57:28 10° SSW
Meteor 2-5 Rocket 4.3 06:52:09 10° S 06:57:59 64° E 07:03:47 10° NNE
Cosmos 1833 4.1 06:54:21 18° NNW 06:58:31 60° WSW 07:04:00 10° S
Cosmos 1340 Rocket 3.3 07:00:12 42° NW 07:00:12 42° NW 07:03:24 10° N
Cosmos 1953 Rocket 3.3 06:57:11 13° SSW 07:01:05 77° W 07:05:25 10° N
Cosmos 2219 4.1 06:57:07 10° NNW 07:02:38 49° ENE 07:08:04 10° SE
Cosmos 1825 Rocket 3.7 07:02:29 46° WSW 07:03:06 50° W 07:07:25 10° N
Meteor 1-31 Rocket 2.7 07:00:00 10° NNE 07:03:49 83° ESE 07:07:36 10° S
Cosmos 44 3.4 07:05:48 40° WNW 07:06:53 48° WSW 07:11:32 10° S
SJ 16-02 2.8 07:03:08 10° S 07:07:13 39° ESE 07:11:19 10° NNE
PAYLOAD B 4.2 07:03:05 10° N 07:08:29 57° WNW 07:13:52 10° SSW
Cosmos 990 Rocket 4.4 07:10:28 33° WSW 07:11:55 39° WNW 07:16:46 10° N
Cosmos 1707 2.9 07:15:07 25° SW 07:17:04 46° W 07:20:53 10° N
Tiangong 2 1.0 07:18:26 48° WNW 07:19:13 86° SSW 07:22:26 10° ESE
CZ-4B DEB 4.4 07:14:00 10° N 07:19:16 49° WNW 07:24:32 10° SW
Cosmos 2154 Rocket 4.2 07:14:33 10° NNW 07:20:36 48° W 07:26:36 10° SSW
CZ-2C R/B 3.7 07:17:19 10° S 07:22:04 72° WSW 07:26:49 10° NNW
Cosmos 44 Rocket 3.8 07:20:58 25° WNW 07:22:56 36° WSW 07:27:24 10° S
Meteor 1-16 Rocket 4.2 07:20:59 10° NNW 07:26:38 77° W 07:32:25 10° S
Cosmos 1656 Rocket 4.0 07:24:33 14° SW 07:29:10 45° WNW 07:34:37 10° NNE
Okean O Rocket 2.5 07:25:40 10° N 07:29:22 27° WNW 07:30:54 22° WSW
Cosmos 1242 Rocket 3.9 07:32:07 21° WSW 07:32:07 21° WSW 07:34:02 10° SSW
CZ-4B R/B 4.3 07:28:05 10° N 07:32:22 49° WNW 07:36:42 10° SSW
USA 116 3.5 07:29:49 10° S 07:33:11 58° W 07:37:00 10° NNW
SL-8 Rocket 4.0 07:29:29 10° N 07:35:50 83° W 07:42:09 10° S
ERBS 4.0 07:33:26 10° NNW 07:36:35 32° NE 07:39:43 10° ESE
NOSS 3-1 (C) 3.3 07:31:16 10° SW 07:36:55 66° NW 07:43:20 10° NNE
Cosmos 1378 4.1 07:34:54 17° WSW 07:36:56 27° WNW 07:40:12 10° NNW
CZ-4B R/B 3.7 07:32:02 10° N 07:37:00 37° WNW 07:42:02 10° SW
USA 229 DEB 4.2 07:33:09 17° WSW 07:37:52 38° NW 07:44:17 10° NNE
APEX 3.9 07:35:21 16° NW 07:37:56 37° WSW 07:42:11 10° S
USA 229 4.2 07:33:12 17° WSW 07:37:56 39° NW 07:44:24 10° NNE
EO 1 Del DPAF 3.1 07:34:24 10° S 07:38:13 79° WSW 07:42:04 10° NNW
Cosmos 1356 Rocket 3.6 07:34:20 10° SSW 07:38:28 49° WNW 07:42:39 10° N
Milstar 3 4.1 07:33:50 13° WSW 07:38:48 29° S 07:46:03 10° SE
Okean-O 2.6 07:36:23 10° NNE 07:40:51 86° WNW 07:45:16 10° SSW
USA 81 4.0 07:35:41 10° SSW 07:40:55 68° W 07:46:11 10° N
NOSS 3-1 (A) 3.3 07:36:00 10° SW 07:41:43 84° NW 07:48:11 10° NNE
Cosmos 1943 Rocket 3.7 07:42:51 15° WNW 07:44:28 16° NW 07:47:53 10° NNW
GPS 2-04 Rocket1 3.9 07:47:17 14° WSW 07:49:45 26° SSW 07:52:48 10° SE
MTI 4.3 07:47:28 10° S 07:50:32 38° W 07:53:36 10° NNW
Shenzhou-11 Module 3.3 07:49:25 16° WSW 07:51:08 27° SSW 07:53:47 10° SSE
Cosmos 158 Rocket 4.1 07:46:21 10° NNW 07:51:41 64° WSW 07:56:59 10° S
Cosmos 864 Rocket 4.5 07:46:49 10° N 07:53:03 86° W 07:59:12 10° S
CZ-2C R/B 3.4 07:48:48 10° NNE 07:53:38 52° E 07:58:34 10° S
Cosmos-2242 3.7 07:51:33 10° NNW 07:55:23 32° W 07:59:13 10° SSW
ADEOS II 4.0 07:56:03 10° NW 07:56:39 10° WNW 07:57:16 10° WNW
Cosmos 2218 Rocket 4.0 07:51:58 10° NNW 07:58:08 67° W 08:04:21 10° S
COSMO-SKYMED 1 2.7 07:59:37 10° S 08:03:52 56° W 08:08:09 10° NNW
Meteor 1-24 Rocket 4.0 08:01:40 10° SSW 08:07:32 54° WNW 08:13:23 10° N
Cosmos 1269 Rocket 4.1 08:03:42 10° NNW 08:08:57 63° WSW 08:14:10 10° S
Meteor 1-28 Rocket 4.4 08:08:23 10° SSW 08:11:25 23° W 08:14:30 10° NW
IDEFIX/ARIANE 42P 2.6 08:07:02 10° N 08:12:18 81° WNW 08:17:31 10° SSW
OAO 2 Rocket 4.2 08:10:58 10° W 08:15:33 37° SSW 08:20:05 10° SE
Thor Agena Rocket 3.8 08:10:17 10° SSE 08:15:34 81° ENE 08:20:50 10° NNW
